Home   Weather   Ulaanbaatar   Past weeks
Flag for Mongolia

Past Weather in Ulaanbaatar, Mongolia — Yesterday and Last 2 Weeks

Now
39 °F

Passing clouds.


Feels Like: 34 °F
Forecast: 41 / 12 °F
Wind: 8 mph from Southwest

Location: Ulan-Bator

Current Time: Mar 23, 2019 at 2:50:54 pm

Latest Report: Mar 23, 2019 at 2:00 pm


Visibility: N/A

Pressure: 29.98 "Hg (25.55 "Hg at 1298m altitude)

Humidity: 20%

Dew Point: 1 °F

Location of UlaanbaatarLocation

Past Weather in Ulaanbaatar — Graph

°F

Ulaanbaatar Temperature Yesterday

Maximum temperature yesterday: 27 °F (at 2:30 pm)
Minimum temperature yesterday: 5 °F (at 3:00 am)
Average temperature yesterday: 17 °F

High & Low Weather Summary for the Past Weeks

 TemperatureHumidityPressure
High54 °F (Mar 18, 2:30 pm)86% (Mar 9, 8:30 am)30.30 "Hg (Mar 9, 8:30 am)
Low-4 °F (Mar 12, 5:00 am)11% (Mar 17, 4:00 pm)29.45 "Hg (Mar 18, 4:00 pm)
Average22 °F50%30.03 "Hg
* Reported Mar 8 1:00 pm — Mar 23 1:30 pm, Ulaanbaatar. Weather by CustomWeather, © 2019

Note: Actual official high and low records may vary slightly from our data, if they occured in-between our weather recording intervals... More about our weather records

Advertising

Ulaanbaatar Weather History for the Previous 24 Hours

Scroll right to see more
 ConditionsComfort  
Time TempWeatherWind HumidityBarometerVisibility
1:30 pm
Sat, Mar 23
37 °FPassing clouds.10 mph22%30.01 "HgN/A
1:00 pm37 °FPassing clouds.6 mph22%30.01 "HgN/A
12:30 pm34 °FPassing clouds.8 mph25%30.04 "HgN/A
12:00 pm32 °FPassing clouds.10 mph27%30.04 "HgN/A
11:30 am30 °FSunny.10 mph34%30.07 "Hg10 mi
11:00 am27 °FSunny.1 mph39%30.09 "Hg10 mi
10:30 am23 °FSunny.1 mph46%30.09 "Hg10 mi
10:00 am19 °FSunny.1 mph49%30.09 "Hg10 mi
9:30 am16 °FSunny.No wind53%30.12 "Hg10 mi
9:00 am14 °FSunny.1 mph57%30.12 "Hg10 mi
8:30 am10 °FSunny.1 mph67%30.12 "Hg10 mi
8:00 am5 °FSunny.No wind72%30.12 "Hg10 mi
7:30 am0 °FClear.No wind78%30.15 "Hg10 mi
7:00 am0 °FClear.1 mph78%30.15 "Hg10 mi
6:30 am0 °FClear.No wind78%30.15 "Hg10 mi
6:00 am3 °FClear.1 mph72%30.15 "Hg10 mi
5:30 am0 °FClear.1 mph71%30.18 "Hg10 mi
5:00 am1 °FClear.1 mph71%30.18 "Hg10 mi
4:00 am5 °FClear.No wind72%30.18 "Hg10 mi
3:00 am1 °FClear.1 mph71%30.21 "Hg10 mi
2:00 am7 °FClear.1 mph66%30.24 "Hg10 mi
1:00 am3 °FClear.1 mph72%30.24 "Hg10 mi
12:30 am5 °FClear.1 mph66%30.24 "Hg10 mi
12:00 am7 °FClear.1 mph66%30.27 "Hg10 mi
11:30 pm
Fri, Mar 22
5 °FClear.1 mph72%30.27 "Hg10 mi
11:00 pm9 °FClear.No wind61%30.27 "Hg10 mi
10:30 pm9 °FClear.1 mph61%30.27 "Hg10 mi
10:00 pm9 °FClear.1 mph56%30.27 "Hg10 mi
9:30 pm9 °FClear.1 mph56%30.27 "Hg10 mi
9:00 pm10 °FClear.3 mph52%30.27 "Hg10 mi
8:30 pm12 °FClear.3 mph48%30.27 "Hg10 mi
8:00 pm14 °FSunny.1 mph48%30.27 "Hg10 mi
7:30 pm23 °FSunny.3 mph39%30.27 "Hg10 mi
7:00 pm25 °FSunny.8 mph36%30.27 "Hg10 mi
6:30 pm27 °FPassing clouds.8 mph33%30.27 "HgN/A
6:00 pm27 °FPassing clouds.10 mph33%30.24 "HgN/A
5:30 pm27 °FPassing clouds.10 mph33%30.24 "HgN/A
5:00 pm27 °FPassing clouds.13 mph33%30.24 "HgN/A
4:30 pm27 °FPassing clouds.13 mph33%30.24 "HgN/A
3:00 pm27 °FPassing clouds.13 mph33%30.27 "HgN/A
2:30 pm27 °FPassing clouds.13 mph36%30.27 "HgN/A
2:00 pm25 °FScattered clouds.15 mph39%30.27 "HgN/A
Weather by CustomWeather, © 2019

See weather overview